Find Starlink 33579

NORAD ID: 62764 Int'l Des: 2025-015 Owner: SPXS Country: US Constellation: starlink operational
LEOCIRCULAR

Live Position

Loading 3D Globe...

About Starlink 33579

Description loading...

Upcoming Passes

Passes for default location (London). Set your location on the main map for personalized predictions.

Altitude History

Loading altitude history...

Two-Line Element Set

1 62764U 25015G 26126.08521843 .00019622 00000-0 67210-3 0 9995
2 62764 53.1604 55.5049 0001272 162.9926 197.1118 15.30237174 73271
Epoch: May 6, 2026 • Age: 25 hours

Current Status

Altitude 493.3 km
Velocity 7.62 km/s
Sub-Earth Point -52.49°S, 41.41°E
Launch Date Jan 21, 2025
Age 1.2 years
Type internet

Technical Details

Classification Payload
Mass 575.00 kg
Dry Mass 530.00 kg
Total Mass 575.00 kg
Length 0.30 m
Diameter 4.10 m
Span 29.00 m
Shape Box + pan
Manufacturer SPXS
Bus Type Starlink V2MO
Phase Status In Orbit
Owner/State SPXS/US

Most Searched